Location: Dal�� Lhota
(48.7500°N, 14.0167°E)
Time: 02:13:43
(UTC+00:00)

Vanguard 3 - Pass Details

Date: 02 August 2021
Orbit: 510 x 3260 km, 33.3° (Epoch: 16 September)

Event Time Altitude Azimuth Distance (km) Brightness Sun altitude
Rises 16:48:25 0° 231° (SW) 5,448 12.0 16.7°
Reaches altitude 10° 16:51:48 10° 225° (SW) 4,781 11.7 16.1°
Maximum altitude 17:05:10 42° 161° (SSE) 3,752 10.4 13.9°
Drops below altitude 10° 17:22:42 10° 100° (E) 6,196 11.0 11.1°
Sets 17:27:50 0° 94° (E) 7,149 11.3 10.3°
